ASTRO-H (HITOMI)

Last updated on Mon Dec 15 2025 00:02:20 GMT+0000 (Coordinated Universal Time)

1 41337U 16012A 25348.27730354 .00003943 00000+0 23501-3 0 9993 2 41337 30.9980 187.4606 0009598 194.6308 165.4052 15.09365983539316
UTC large
Height (km)
Speed (km/s)
/
Latitude / Longitude
Inclination (degrees)
Orbital Period (minutes)
Azimuth
Elevation
Range (km)
Doppler Factor

Next 0 passes for location: London (51.5072 / 0.1276)

Sorry there are no passes over London.